Location: Gälforsberget
(66.6500°N, 22.4167°E)
Time: 02:15:42
(UTC+00:00)

Cosmos 1933 Rocket - Pass Details

Date: 11 April 2026
Orbit: 600 x 623 km, 82.5° (Epoch: 20 May)

Event Time Altitude Azimuth Distance (km) Brightness Sun altitude
Rises 20:03:45 0° 212° (SSW) 2,883 6.8 -10.2°
Reaches altitude 10° 20:05:59 10° 216° (SW) 1,985 6.0 -10.3°
Maximum altitude 20:10:20 57° 296° (WNW) 736 4.3 -10.6°
Drops below altitude 10° 20:14:43 10° 16° (NNE) 2,008 6.8 -10.8°
Sets 20:17:01 0° 20° (NNE) 2,920 7.6 -11.0°
